TimeEDT,TemperatureF,Dew PointF,Humidity,Sea Level PressureIn,VisibilityMPH,Wind Direction,Wind SpeedMPH,Gust SpeedMPH,PrecipitationIn,Events,Conditions,WindDirDegrees,DateUTC
12:50 AM,53.6,46.4,77,30.14,10.0,Calm,Calm,-,N/A,,Overcast,0,2013-09-27 04:50:00
12:54 AM,54.0,46.9,77,30.14,10.0,Calm,Calm,-,N/A,,Overcast,0,2013-09-27 04:54:00
1:41 AM,54.0,48.0,80,30.15,10.0,NNE,5.8,-,N/A,,Overcast,20,2013-09-27 05:41:00
1:54 AM,54.0,48.0,80,30.16,10.0,NNE,4.6,-,N/A,,Overcast,30,2013-09-27 05:54:00
2:54 AM,53.1,48.0,83,30.16,10.0,North,6.9,-,N/A,,Overcast,10,2013-09-27 06:54:00
3:54 AM,53.1,48.0,83,30.15,10.0,North,5.8,-,N/A,,Overcast,10,2013-09-27 07:54:00
4:54 AM,53.1,46.9,80,30.17,10.0,North,4.6,-,N/A,,Overcast,360,2013-09-27 08:54:00
5:28 AM,53.1,46.9,80,30.17,10.0,North,5.8,-,N/A,,Overcast,360,2013-09-27 09:28:00
5:54 AM,53.1,46.9,80,30.18,10.0,North,6.9,-,N/A,,Overcast,360,2013-09-27 09:54:00
6:19 AM,53.1,46.9,80,30.18,10.0,North,6.9,-,N/A,,Overcast,360,2013-09-27 10:19:00
6:54 AM,53.1,46.9,80,30.20,10.0,North,6.9,-,N/A,,Overcast,360,2013-09-27 10:54:00
7:54 AM,54.0,46.9,77,30.22,10.0,North,6.9,-,N/A,,Overcast,360,2013-09-27 11:54:00
8:54 AM,55.0,46.9,74,30.24,10.0,North,6.9,-,N/A,,Overcast,360,2013-09-27 12:54:00
9:31 AM,55.9,46.9,72,30.23,10.0,North,5.8,-,N/A,,Overcast,350,2013-09-27 13:31:00
9:54 AM,57.0,48.0,72,30.24,10.0,North,6.9,-,N/A,,Overcast,360,2013-09-27 13:54:00
10:54 AM,57.0,48.0,72,30.25,10.0,NE,8.1,-,N/A,,Overcast,50,2013-09-27 14:54:00
11:54 AM,60.1,48.0,64,30.25,10.0,North,8.1,-,N/A,,Overcast,10,2013-09-27 15:54:00
12:54 PM,61.0,46.9,60,30.24,10.0,NNE,10.4,-,N/A,,Overcast,20,2013-09-27 16:54:00
1:54 PM,60.1,48.0,64,30.23,10.0,NNE,5.8,-,N/A,,Overcast,30,2013-09-27 17:54:00
2:54 PM,61.0,48.0,62,30.22,10.0,North,6.9,-,N/A,,Overcast,10,2013-09-27 18:54:00
3:54 PM,60.1,50.0,69,30.23,10.0,NNE,6.9,-,N/A,,Overcast,20,2013-09-27 19:54:00
4:54 PM,61.0,50.0,67,30.23,10.0,NNE,6.9,-,N/A,,Overcast,30,2013-09-27 20:54:00
5:54 PM,60.1,50.0,69,30.23,10.0,North,3.5,-,N/A,,Partly Cloudy,10,2013-09-27 21:54:00
6:54 PM,57.9,50.0,75,30.25,10.0,Calm,Calm,-,N/A,,Clear,0,2013-09-27 22:54:00
7:54 PM,53.1,50.0,89,30.26,10.0,Calm,Calm,-,N/A,,Clear,0,2013-09-27 23:54:00
8:54 PM,52.0,48.9,89,30.27,10.0,NNW,3.5,-,N/A,,Clear,340,2013-09-28 00:54:00
9:54 PM,55.9,48.9,77,30.27,10.0,NNW,4.6,-,N/A,,Clear,340,2013-09-28 01:54:00
10:54 PM,54.0,48.0,80,30.29,10.0,NNW,3.5,-,N/A,,Clear,330,2013-09-28 02:54:00
11:54 PM,55.9,48.0,75,30.28,10.0,NNW,4.6,-,N/A,,Clear,340,2013-09-28 03:54:00